Weather History for Zephyrhills, FL

Change the Weather History Date:

Thursday, May 2, 2013

  Actual Average (KPCM) Record (KPCM)
Temperature  
Mean Temperature 68 °F -  
Max Temperature 73 °F 86 °F 95 °F (1990)
Min Temperature 62 °F 61 °F 48 °F (1941)
Cooling Degree Days 2    
Growing Degree Days 18 (Base 50)    
Moisture  
Dew Point 67 °F    
Average Humidity 98    
Maximum Humidity 100    
Minimum Humidity 88    
Precipitation  
Precipitation 0.36 in - - ()
Sea Level Pressure  
Sea Level Pressure 29.92 in    
Wind  
Wind Speed 4 mph (NE)    
Max Wind Speed 10 mph    
Max Gust Speed -    
Visibility 9 miles    
Events Rain , Thunderstorm    
Averages and records for this station are not official NWS values.
T = Trace of Precipitation, MM = Missing Value Source: NWS Daily Summary

Daily Weather History Graph

Daily Weather History Graph

Search for Another Location

Airport:

Trip Planner

Search our weather history database for the weather conditions in past years. The results will help you decide how hot, cold, wet, or windy it might be!

Date:

Astronomy

May. 02, 2013 Rise Set
Actual Time 6:47 AM EDT 8:04 PM EDT
Civil Twilight 6:22 AM EDT 8:29 PM EDT
Nautical Twilight 5:52 AM EDT 8:58 PM EDT
Astronomical Twilight 5:22 AM EDT 9:29 PM EDT
Moon 1:56 AM EDT (5/2) 1:27 PM EDT (5/2)
Length of Visible Light 14h 06m
Length of Day
13h 16m
Waning Gibbous, 48% of the Moon is Illuminated
May 2
Waning Gibbous
May 9
New
May 18
First Quarter
May 25
Full
May 31
Last Quarter

Hourly Weather History & Observations

Time (EDT) Temp. Dew Point Humidity Pressure Visibility Wind Dir Wind Speed Gust Speed Precip Events Conditions
12:15 AM 64.4 °F 64.4 °F 100% 30.00 in 10.0 mi ENE 5.8 mph - N/A   Mostly Cloudy
12:35 AM 64.4 °F 64.4 °F 100% 30.00 in 10.0 mi Calm Calm - N/A   Mostly Cloudy
12:55 AM 64.4 °F 64.4 °F 100% 30.00 in 10.0 mi Calm Calm - N/A   Overcast
1:15 AM 64.4 °F 64.4 °F 100% 30.00 in 10.0 mi Calm Calm - N/A Rain Light Rain
1:35 AM 64.4 °F 64.4 °F 100% 29.98 in 10.0 mi Calm Calm - N/A Rain Light Rain
1:55 AM 64.4 °F 64.4 °F 100% 29.97 in 2.5 mi East 4.6 mph - 0.25 in Rain Rain
2:35 AM 64.4 °F 64.4 °F 100% 29.97 in 10.0 mi SE 6.9 mph - N/A   Overcast
2:55 AM 64.4 °F 64.4 °F 100% 29.97 in 7.0 mi ESE 8.1 mph - 0.01 in Rain Rain
3:15 AM 62.6 °F 62.6 °F 100% 29.96 in 5.0 mi East 10.4 mph - 0.02 in Rain Rain
3:35 AM 62.6 °F 62.6 °F 100% 29.97 in 5.0 mi East 5.8 mph - 0.03 in Rain Rain
3:55 AM 62.6 °F 62.6 °F 100% 29.96 in 7.0 mi Calm Calm - 0.03 in   Overcast
4:15 AM 62.6 °F 62.6 °F 100% 29.96 in 5.0 mi ESE 3.5 mph - 0.01 in   Drizzle
4:35 AM 62.6 °F 62.6 °F 100% 29.96 in 5.0 mi Calm Calm - 0.02 in   Light Drizzle
4:55 AM 62.6 °F 62.6 °F 100% 29.95 in 10.0 mi Calm Calm - 0.02 in   Overcast
5:15 AM 62.6 °F 62.6 °F 100% 29.95 in 7.0 mi ENE 3.5 mph - N/A   Overcast
5:35 AM 62.6 °F 62.6 °F 100% 29.96 in 4.0 mi Calm Calm - N/A Rain Light Rain
5:55 AM 62.6 °F 62.6 °F 100% 29.96 in 4.0 mi Calm Calm - 0.01 in   Drizzle
6:15 AM 62.6 °F 62.6 °F 100% 29.96 in 3.0 mi East 4.6 mph - 0.02 in   Heavy Drizzle
6:35 AM 62.6 °F 62.6 °F 100% 29.96 in 5.0 mi NE 4.6 mph - 0.03 in   Overcast
6:55 AM 62.6 °F 62.6 °F 100% 29.95 in 10.0 mi NE 5.8 mph - 0.03 in   Overcast
7:15 AM 62.6 °F 62.6 °F 100% 29.96 in 10.0 mi NNE 5.8 mph - N/A   Overcast
7:35 AM 62.6 °F 62.6 °F 100% 29.96 in 10.0 mi NNE 4.6 mph - N/A   Overcast
7:55 AM 64.4 °F 64.4 °F 100% 29.97 in 10.0 mi NNE 3.5 mph - N/A   Overcast
8:15 AM 64.4 °F 64.4 °F 100% 29.97 in 5.0 mi NE 5.8 mph - N/A Rain Light Rain
8:35 AM 64.4 °F 64.4 °F 100% 29.97 in 10.0 mi NE 6.9 mph - N/A   Overcast
8:55 AM 64.4 °F 64.4 °F 100% 29.97 in 10.0 mi NE 10.4 mph - N/A   Overcast
9:15 AM 66.2 °F 66.2 °F 100% 29.96 in 10.0 mi NE 8.1 mph - N/A   Overcast
9:35 AM 68.0 °F 68.0 °F 100% 29.96 in 10.0 mi NE 6.9 mph - N/A   Overcast
9:55 AM 68.0 °F 68.0 °F 100% 29.97 in 10.0 mi ENE 5.8 mph - N/A   Overcast
10:15 AM 68.0 °F 68.0 °F 100% 29.97 in 10.0 mi ENE 5.8 mph - N/A   Overcast
10:35 AM 68.0 °F 68.0 °F 100% 29.97 in 10.0 mi NE 4.6 mph - N/A   Overcast
10:55 AM 69.8 °F 69.8 °F 100% 29.97 in 10.0 mi ENE 6.9 mph - N/A   Overcast
11:15 AM 69.8 °F 69.8 °F 100% 29.96 in 10.0 mi ENE 6.9 mph - N/A   Overcast
11:35 AM 69.8 °F 69.8 °F 100% 29.96 in 10.0 mi ENE 5.8 mph - N/A   Overcast
11:55 AM 69.8 °F 69.8 °F 100% 29.95 in 10.0 mi East 5.8 mph - N/A   Overcast
12:15 PM 69.8 °F 69.8 °F 100% 29.95 in 10.0 mi East 5.8 mph - N/A   Overcast
12:35 PM 71.6 °F 71.6 °F 100% 29.94 in 10.0 mi East 4.6 mph - N/A   Overcast
12:55 PM 71.6 °F 71.6 °F 100% 29.93 in 10.0 mi ENE 5.8 mph - N/A   Overcast
1:15 PM 73.4 °F 71.6 °F 94% 29.93 in 10.0 mi ENE 3.5 mph - N/A   Overcast
1:35 PM 71.6 °F 71.6 °F 100% 29.92 in 10.0 mi ENE 5.8 mph - N/A   Overcast
1:55 PM 71.6 °F 71.6 °F 100% 29.92 in 10.0 mi NE 3.5 mph - N/A   Overcast
2:15 PM 73.4 °F 71.6 °F 94% 29.91 in 10.0 mi NE 4.6 mph - N/A   Overcast
2:35 PM 73.4 °F 69.8 °F 88% 29.90 in 10.0 mi Calm Calm - N/A   Mostly Cloudy
2:55 PM 73.4 °F 69.8 °F 88% 29.89 in 10.0 mi NNE 4.6 mph - N/A   Overcast
3:15 PM 73.4 °F 69.8 °F 88% 29.89 in 10.0 mi NNE 6.9 mph - N/A   Overcast
3:35 PM 73.4 °F 69.8 °F 88% 29.89 in 10.0 mi NNE 5.8 mph - N/A   Overcast
3:55 PM 73.4 °F 69.8 °F 88% 29.89 in 10.0 mi NNE 5.8 mph - N/A   Mostly Cloudy
4:15 PM 73.4 °F 69.8 °F 88% 29.87 in 10.0 mi NNE 6.9 mph - N/A   Overcast
4:35 PM 73.4 °F 69.8 °F 88% 29.87 in 10.0 mi NNE 9.2 mph - N/A   Mostly Cloudy
4:55 PM 71.6 °F 69.8 °F 94% 29.87 in 10.0 mi North 9.2 mph - N/A Thunderstorm Scattered Clouds
5:15 PM 71.6 °F 69.8 °F 94% 29.87 in 10.0 mi North 6.9 mph - N/A   Mostly Cloudy
5:35 PM 71.6 °F 69.8 °F 94% 29.87 in 10.0 mi NNE 6.9 mph - N/A   Mostly Cloudy
5:55 PM 71.6 °F 69.8 °F 94% 29.86 in 10.0 mi NE 6.9 mph - N/A   Scattered Clouds
6:15 PM 71.6 °F 69.8 °F 94% 29.86 in 10.0 mi NE 5.8 mph - N/A   Scattered Clouds
6:35 PM 71.6 °F 69.8 °F 94% 29.85 in 10.0 mi NNE 5.8 mph - N/A   Overcast
6:55 PM 71.6 °F 69.8 °F 94% 29.85 in 10.0 mi NNE 6.9 mph - N/A   Overcast
7:15 PM 69.8 °F 69.8 °F 100% 29.85 in 10.0 mi NE 6.9 mph - N/A   Overcast
7:35 PM 69.8 °F 69.8 °F 100% 29.85 in 10.0 mi NNE 8.1 mph - N/A   Overcast
7:55 PM 69.8 °F 69.8 °F 100% 29.86 in 10.0 mi NNE 4.6 mph - N/A   Overcast
8:15 PM 69.8 °F 69.8 °F 100% 29.86 in 10.0 mi NE 5.8 mph - N/A   Mostly Cloudy
8:35 PM 68.0 °F 68.0 °F 100% 29.86 in 10.0 mi Calm Calm - N/A   Mostly Cloudy
8:55 PM 68.0 °F 68.0 °F 100% 29.86 in 10.0 mi Calm Calm - N/A   Scattered Clouds
9:15 PM 68.0 °F 68.0 °F 100% 29.87 in 10.0 mi Calm Calm - N/A   Scattered Clouds
9:35 PM 68.0 °F 68.0 °F 100% 29.87 in 10.0 mi Calm Calm - N/A   Mostly Cloudy
9:55 PM 68.0 °F 68.0 °F 100% 29.87 in 10.0 mi Calm Calm - N/A   Overcast
10:15 PM 68.0 °F 68.0 °F 100% 29.87 in 10.0 mi Calm Calm - N/A   Overcast
10:35 PM 68.0 °F 68.0 °F 100% 29.88 in 10.0 mi West 5.8 mph - N/A   Overcast
10:55 PM 68.0 °F 68.0 °F 100% 29.88 in 10.0 mi Calm Calm - 0.01 in Rain Light Rain
11:15 PM 68.0 °F 68.0 °F 100% 29.87 in 10.0 mi Calm Calm - N/A   Light Drizzle
11:35 PM 68.0 °F 68.0 °F 100% 29.87 in 10.0 mi Calm Calm - N/A   Overcast
11:55 PM 68.0 °F 68.0 °F 100% 29.86 in 10.0 mi Calm Calm - N/A   Overcast